Location: Stoke Bliss
(52.2667°N, 2.5167°W)
Time: 19:06:44
(UTC+00:00)

BREEZE-M DEB (TANK) - Pass Details

Date: 03 March 2021
Orbit: 308 x 15403 km, 49.5° (Epoch: 17 April)

Event Time Altitude Azimuth Distance (km) Brightness Sun altitude
Rises 19:42:23 0° 264° (W) 2,062 6.7 -17.4°
Reaches altitude 10° 19:43:48 10° 260° (W) 1,354 5.4 -17.6°
Maximum altitude 19:46:16 58° 179° (S) 608 2.4 -18.0°
Enters shadow 19:47:34 37° 118° (ESE) 991 3.1 -18.2°
